Wind_Speed
28 27 27 27 27 27 28 28 28 29 29 29 28 27 27 26 26 26 27 28 28 29 30 30 31 32 33 33 33 32 32 31 30 30 29 29 29 28 28 28 29 29 29
31 30 30 30 29 29 29 29 30 30 30 30 30 29 29 28 27 28 29 29 30 30 30 30 31 31 31 31 31 31 31 30 30 30 30 30 30 30 29 29 30 30 30
34 33 32 32 32 32 31 31 30 30 31 31 31 30 30 29 29 29 29 29 29 29 29 29 30 30 29 29 28 28 29 29 30 30 31 32 33 33 34 34 35 35 36
37 36 36 35 35 34 34 32 31 31 31 31 32 31 30 30 29 29 29 29 28 27 27 28 28 28 27 27 27 27 28 29 30 30 31 33 34 35 37 38 38 39 40
40 40 40 39 38 37 36 35 34 33 33 32 32 32 31 30 30 29 29 28 27 27 27 27 27 27 27 27 27 27 27 28 29 30 32 33 34 36 37 39 40 40 41
44 43 43 42 42 40 39 38 36 35 34 34 34 33 33 32 31 30 29 29 29 29 29 29 29 29 29 29 29 28 28 29 30 31 32 33 34 35 36 37 38 39 40
48 47 46 45 44 44 43 42 40 37 36 36 36 36 35 33 32 32 31 31 31 32 32 32 32 32 32 32 32 32 32 32 33 33 34 35 35 36 37 37 38 39 40
51 50 49 48 48 47 46 45 43 41 40 39 39 38 37 35 34 34 34 34 34 34 35 35 35 35 35 35 36 36 36 36 36 36 37 37 38 38 39 39 40 40 41
53 53 52 52 51 50 49 48 47 45 43 42 41 41 39 38 37 37 37 37 37 37 38 38 38 39 39 40 40 40 40 40 40 40 41 41 41 41 41 41 42 43 44
55 56 55 54 53 53 52 50 49 48 47 45 44 44 43 42 40 39 40 40 40 40 40 41 41 42 43 43 44 44 44 44 44 44 44 44 44 44 44 44 45 46 46
56 57 57 57 56 55 55 53 52 51 50 48 47 46 46 45 44 43 43 43 42 42 43 43 44 45 46 47 47 47 48 48 48 47 47 47 47 47 48 48 49 49 50
57 58 59 60 59 59 58 57 55 54 52 51 50 49 48 48 47 47 46 45 44 44 45 46 47 48 49 50 50 50 51 52 51 51 50 50 50 50 51 52 53 54 54
59 60 61 62 62 62 61 60 59 57 55 54 52 52 51 50 50 49 48 47 46 47 48 49 50 51 52 53 53 53 54 55 55 54 54 54 54 54 55 56 57 58 59
63 63 63 63 64 64 64 63 61 60 58 56 55 54 54 53 52 51 51 49 48 49 50 51 52 54 54 55 56 56 57 58 58 58 59 59 59 60 61 62 63 64 64
67 67 67 66 65 65 65 65 64 62 61 59 58 56 56 55 54 53 52 51 52 52 53 53 55 57 57 58 59 60 61 61 62 62 63 64 65 66 67 68 68 69 69
69 69 69 68 67 66 65 65 64 64 63 62 60 58 57 55 53 55 54 55 55 55 56 56 58 59 60 62 63 64 64 64 64 66 68 69 70 71 71 72 72 72 72
68 69 68 67 66 66 65 64 63 63 63 62 61 59 59 58 58 58 57 57 57 57 59 60 61 62 64 66 67 67 68 68 69 70 72 73 73 73 73 73 74 75 75
62 63 63 63 63 62 62 62 62 62 61 61 60 60 59 59 58 58 59 59 59 60 62 63 64 65 67 69 69 70 71 71 71 72 73 74 75 75 75 77 78 79 79
54 54 55 56 56 56 57 57 58 59 59 59 60 59 59 59 60 61 60 60 61 63 64 65 66 67 69 71 72 72 72 72 73 74 75 77 78 79 80 81 82 82 82
43 44 45 46 47 48 49 50 51 53 54 56 56 57 57 58 59 59 60 60 61 63 64 65 67 69 70 71 72 72 72 73 74 76 79 81 82 83 84 84 84 83 82
33 34 35 36 37 39 40 40 42 45 47 49 50 51 53 55 57 58 59 59 61 63 65 66 68 69 69 70 71 72 74 76 78 81 83 84 85 85 84 82 81 79 77
23 25 26 27 28 30 30 31 33 36 39 41 44 46 49 51 53 55 57 58 60 62 63 64 66 67 68 71 73 76 78 79 81 83 83 83 83 81 79 77 74 71 68
15 18 19 20 22 23 24 25 27 30 33 36 38 41 44 46 49 51 54 55 57 58 60 62 64 67 70 73 76 78 79 80 80 80 79 76 75 72 69 65 62 59 57
7 9 11 14 15 16 18 20 21 23 25 28 32 36 40 43 45 46 48 50 53 55 59 62 66 69 72 74 76 76 75 73 71 70 68 64 60 57 53 52 52 52 50
3 2 5 7 8 11 14 16 17 20 23 26 29 31 33 35 38 40 44 48 52 57 61 65 68 70 70 70 69 66 64 61 58 56 54 50 47 44 43 44 45 46 45
5 4 2 3 5 7 9 11 13 15 18 21 24 27 30 33 37 41 46 51 56 60 63 65 65 64 61 58 56 52 50 47 44 42 42 40 39 38 35 37 40 42 42
Wind_Direction
273 274 275 276 276 276 275 273 272 271 272 274 275 277 279 281 283 284 286 288 290 291 292 294 296 297 298 298 297 296 293 291 288 286 283 281 279 277 275 275 274 273 272
272 273 273 274 275 275 274 273 272 270 271 271 272 274 276 278 280 282 285 288 289 290 292 294 297 299 299 299 298 296 294 292 288 285 282 280 278 276 275 274 274 274 274
271 272 272 273 273 273 273 273 272 271 271 271 271 272 273 276 278 281 284 287 288 289 291 293 296 299 301 301 299 297 295 292 289 286 283 280 278 277 275 274 274 274 274
271 271 270 270 271 271 273 273 272 271 271 271 271 271 272 273 277 281 283 286 287 288 290 292 295 298 300 300 299 297 295 292 290 287 285 282 280 279 277 276 276 275 275
269 269 268 268 269 270 271 272 272 271 270 271 271 271 271 272 274 278 281 283 285 287 288 290 293 295 297 297 297 296 294 292 291 289 287 285 283 282 280 279 278 277 276
265 265 265 265 267 268 268 269 269 270 270 270 270 270 270 271 273 276 278 281 283 285 286 288 290 292 293 293 293 293 292 291 290 289 288 286 285 284 283 282 282 281 279
264 263 263 264 264 265 265 266 267 268 269 269 269 269 270 271 272 274 277 279 282 283 285 286 287 288 289 289 290 290 290 289 289 288 287 286 285 285 285 284 283 283 282
267 265 264 263 262 262 263 264 265 266 267 268 269 269 270 271 271 273 276 278 280 281 282 284 285 286 286 287 287 288 288 288 288 288 287 286 285 284 284 285 284 284 283
265 263 262 261 260 260 260 262 263 265 266 267 268 269 270 270 270 272 275 277 279 280 281 282 284 285 285 285 286 286 286 286 287 287 287 286 285 284 284 285 285 284 283
264 263 261 260 258 258 259 260 262 264 265 266 268 268 268 269 270 271 273 275 277 279 281 282 282 283 284 284 285 285 285 285 286 287 286 286 285 284 285 285 285 285 284
263 262 260 258 257 257 257 258 260 262 264 265 266 268 269 270 270 272 273 275 277 279 280 281 282 282 283 284 284 285 285 285 286 286 286 285 284 283 284 285 286 286 285
262 260 259 257 256 255 256 256 258 259 261 262 264 266 268 271 272 273 274 275 276 279 280 282 282 283 282 283 284 284 284 285 285 286 285 284 284 283 284 285 286 286 285
262 260 258 257 256 255 254 254 255 257 258 260 262 264 266 269 270 273 275 275 276 278 280 282 282 283 283 282 283 283 283 284 285 285 285 285 284 284 285 286 286 286 285
262 260 258 256 255 254 254 254 254 255 256 257 259 262 264 267 269 272 274 275 277 280 281 281 282 282 282 282 282 282 283 284 284 284 285 285 285 285 286 286 287 287 286
264 261 258 256 254 253 253 253 254 254 255 256 258 261 264 266 268 271 274 276 280 281 281 281 283 283 283 283 283 284 283 283 283 284 285 285 285 286 287 287 286 286 285
266 263 260 257 255 253 252 252 253 254 255 256 258 260 262 265 268 271 273 277 279 281 281 282 283 283 284 284 284 285 285 285 284 285 285 285 285 285 286 286 285 285 284
266 263 261 258 256 253 252 251 251 252 254 256 257 260 262 265 268 270 274 277 278 279 279 281 282 283 285 286 285 286 285 286 286 286 286 285 285 286 285 285 285 284 283
265 262 260 258 256 254 252 251 250 251 252 255 257 259 262 265 269 272 274 276 277 278 279 280 283 284 285 286 287 287 288 288 287 287 287 287 286 286 286 285 285 284 283
264 261 259 258 256 255 253 251 250 251 252 254 257 260 262 266 269 272 274 276 278 278 279 281 283 285 287 288 288 288 289 289 289 289 288 288 287 287 286 286 285 284 283
263 260 258 256 255 254 253 251 250 250 252 254 257 260 262 265 269 272 275 276 277 279 281 282 285 286 287 289 290 290 291 291 290 289 289 289 288 288 287 286 285 284 283
266 260 257 254 252 251 250 249 249 249 251 253 256 259 262 266 270 273 275 277 278 280 283 285 287 288 290 291 292 292 292 292 291 290 290 289 289 288 287 287 286 285 285
267 261 256 252 249 247 245 245 247 249 251 254 257 261 265 268 271 273 275 278 280 283 286 288 289 291 293 294 294 294 293 292 291 290 290 289 289 289 288 287 287 286 285
273 262 253 247 243 240 239 240 243 247 251 255 258 262 266 269 273 275 278 281 285 288 290 293 294 294 295 294 294 294 293 293 292 290 290 290 289 289 289 288 287 287 287
285 258 242 235 233 232 235 237 241 246 254 259 263 266 269 273 277 280 285 289 292 294 296 297 298 298 297 297 296 295 294 294 293 292 292 292 291 291 291 290 289 290 290
343 270 232 224 224 229 235 241 245 253 257 262 268 273 278 283 288 293 296 298 299 300 301 301 300 299 299 298 297 297 297 296 295 294 295 296 295 295 294 292 291 292 293
12 0 324 271 253 250 250 252 258 265 269 274 280 286 291 294 297 299 301 302 302 303 303 303 302 301 300 301 301 301 301 301 301 300 301 302 300 299 296 293 293 294 295
Height
5837 5837 5837 5836 5835 5834 5834 5833 5832 5832 5831 5830 5830 5830 5829 5829 5828 5827 5825 5824 5822 5821 5819 5818 5816 5814 5812 5810 5808 5807 5805 5804 5803 5802 5802 5801 5801 5800 5800 5800 5800 5800 5800
5831 5831 5831 5831 5830 5829 5828 5827 5827 5826 5825 5825 5824 5824 5824 5823 5822 5821 5820 5818 5817 5815 5813 5812 5810 5808 5806 5804 5802 5800 5799 5798 5797 5796 5795 5795 5795 5795 5794 5794 5794 5794 5794
5825 5825 5825 5825 5824 5823 5822 5821 5820 5820 5819 5819 5818 5818 5817 5817 5816 5815 5813 5812 5810 5809 5807 5806 5804 5802 5800 5798 5796 5795 5793 5792 5791 5790 5789 5788 5788 5788 5788 5787 5787 5787 5787
5819 5818 5818 5818 5817 5816 5815 5815 5814 5813 5813 5812 5812 5811 5811 5810 5809 5808 5807 5806 5804 5803 5801 5800 5799 5797 5795 5793 5791 5789 5787 5786 5784 5783 5782 5781 5780 5780 5779 5779 5779 5779 5779
5811 5810 5810 5810 5809 5809 5809 5808 5807 5806 5806 5805 5805 5804 5804 5803 5802 5801 5800 5799 5798 5797 5795 5794 5792 5791 5789 5787 5785 5783 5782 5780 5778 5777 5775 5774 5772 5771 5771 5770 5769 5769 5769
5801 5801 5802 5802 5801 5801 5801 5800 5799 5799 5799 5798 5797 5797 5797 5796 5795 5795 5793 5792 5791 5790 5788 5787 5786 5784 5782 5781 5779 5777 5775 5773 5772 5770 5768 5766 5765 5763 5762 5761 5760 5759 5759
5792 5792 5792 5793 5793 5792 5792 5791 5791 5791 5791 5790 5790 5789 5789 5788 5788 5787 5786 5785 5784 5782 5781 5780 5778 5777 5775 5773 5772 5770 5768 5766 5764 5762 5760 5758 5756 5755 5753 5752 5751 5749 5749
5782 5782 5782 5783 5783 5782 5782 5782 5782 5782 5782 5782 5781 5780 5780 5781 5780 5779 5778 5777 5776 5774 5773 5771 5770 5768 5767 5765 5763 5761 5759 5757 5755 5753 5751 5749 5748 5746 5744 5742 5741 5740 5738
5770 5770 5771 5771 5771 5771 5772 5772 5772 5772 5772 5772 5772 5772 5772 5772 5771 5770 5769 5768 5767 5765 5764 5762 5761 5759 5757 5755 5754 5752 5750 5748 5746 5744 5742 5740 5738 5736 5734 5732 5731 5729 5728
5757 5758 5758 5759 5760 5760 5761 5761 5761 5762 5762 5762 5762 5762 5762 5762 5761 5761 5760 5758 5757 5756 5754 5753 5751 5749 5747 5745 5743 5742 5739 5737 5735 5733 5731 5729 5727 5725 5723 5721 5719 5718 5716
5745 5745 5745 5746 5747 5748 5749 5749 5750 5751 5751 5752 5752 5751 5751 5750 5750 5749 5749 5748 5747 5745 5744 5742 5740 5738 5736 5734 5732 5730 5728 5726 5724 5722 5719 5717 5715 5713 5711 5709 5707 5705 5703
5733 5732 5732 5732 5733 5734 5735 5737 5738 5738 5739 5740 5740 5741 5740 5740 5740 5738 5738 5737 5736 5735 5733 5731 5729 5727 5725 5722 5720 5718 5716 5713 5711 5709 5706 5704 5702 5700 5698 5696 5693 5691 5689
5718 5718 5718 5718 5719 5720 5722 5723 5724 5726 5727 5728 5729 5729 5729 5729 5729 5728 5727 5726 5725 5724 5722 5720 5718 5715 5712 5710 5708 5705 5703 5700 5697 5694 5692 5690 5688 5685 5683 5680 5678 5675 5673
5700 5701 5701 5702 5704 5705 5707 5709 5711 5713 5714 5715 5716 5717 5717 5717 5717 5717 5716 5715 5713 5712 5710 5708 5705 5702 5699 5697 5694 5691 5689 5686 5682 5679 5676 5673 5671 5668 5666 5663 5660 5657 5654
5680 5680 5682 5684 5687 5689 5692 5695 5697 5700 5701 5703 5704 5705 5705 5705 5705 5705 5704 5703 5702 5699 5697 5694 5691 5688 5685 5682 5679 5676 5673 5670 5666 5662 5659 5656 5653 5650 5647 5644 5640 5637 5634
5658 5659 5661 5664 5668 5672 5675 5679 5683 5685 5688 5690 5691 5693 5693 5693 5693 5693 5692 5691 5689 5687 5684 5680 5677 5673 5669 5666 5663 5659 5656 5653 5649 5645 5641 5637 5633 5630 5626 5623 5619 5616 5612
5637 5637 5639 5643 5647 5653 5658 5662 5666 5670 5673 5676 5679 5680 5681 5681 5681 5681 5680 5678 5676 5673 5669 5666 5662 5658 5654 5650 5647 5642 5639 5635 5631 5626 5621 5617 5613 5608 5604 5601 5597 5593 5589
5616 5617 5620 5623 5628 5634 5640 5646 5651 5655 5659 5663 5666 5668 5669 5670 5669 5669 5667 5665 5662 5659 5655 5651 5647 5643 5638 5634 5629 5625 5620 5615 5611 5605 5599 5595 5590 5586 5581 5577 5573 5569 5564
5599 5600 5603 5607 5612 5617 5623 5630 5636 5641 5646 5650 5653 5655 5657 5657 5657 5655 5654 5651 5648 5644 5640 5636 5632 5627 5622 5616 5612 5607 5601 5595 5590 5583 5577 5572 5567 5562 5556 5551 5547 5542 5537
5585 5587 5590 5594 5598 5603 5609 5615 5621 5627 5633 5637 5640 5643 5644 5644 5643 5642 5640 5637 5634 5630 5626 5621 5616 5611 5605 5599 5593 5588 5582 5575 5569 5561 5554 5548 5542 5536 5530 5525 5519 5514 5509
5576 5578 5580 5584 5588 5592 5598 5603 5609 5615 5621 5625 5628 5630 5632 5632 5631 5629 5627 5624 5621 5616 5611 5606 5600 5594 5588 5581 5575 5569 5562 5555 5547 5538 5531 5523 5516 5510 5503 5497 5492 5487 5483
5571 5572 5574 5577 5580 5584 5589 5594 5600 5605 5610 5614 5617 5619 5621 5620 5619 5617 5614 5611 5606 5601 5596 5590 5584 5578 5570 5563 5556 5548 5541 5533 5524 5515 5507 5499 5489 5484 5477 5472 5466 5462 5458
5569 5569 5570 5572 5575 5579 5583 5588 5592 5597 5601 5605 5608 5609 5610 5609 5608 5605 5602 5597 5592 5586 5581 5575 5568 5561 5553 5545 5536 5527 5517 5509 5499 5489 5483 5477 5466 5461 5454 5448 5443 5440 5438
5569 5568 5569 5571 5573 5576 5580 5583 5587 5591 5594 5597 5599 5600 5600 5599 5596 5593 5589 5583 5577 5572 5566 5559 5552 5542 5533 5523 5514 5504 5495 5486 5476 5466 5460 5457 5448 5443 5437 5430 5425 5422 5420
5572 5570 5570 5571 5573 5575 5578 5581 5584 5587 5589 5591 5591 5591 5590 5588 5585 5581 5577 5571 5564 5557 5549 5541 5532 5522 5512 5502 5493 5484 5475 5467 5459 5449 5443 5440 5434 5430 5424 5417 5412 5408 5406
5575 5573 5573 5573 5574 5576 5578 5580 5582 5583 5584 5585 5584 5583 5581 5578 5575 5570 5564 5557 5550 5541 5532 5522 5513 5503 5494 5485 5476 5468 5460 5452 5445 5439 5432 5428 5422 5418 5416 5409 5401 5397 5394